When you browse on this site, cookies collect data to enhance your experience and personalize the content and advertising you see.
Visit our Privacy Policy to learn more. By continuing to use the site, you agree to this use of cookies and data.
  • En España
  • Lista de países
  • Para 7 días
  • Temperatura del agua
  • Mapa Satelital
  • El tiempo en el mapa
  • Informadores
  • user-avatar
    Iniciar sesión

    Tiempo cada hora Prishtina

    Hoy, 19 Febrero, Martes

    Tiempo Temperatura Precipitaciones Viento Presión Humedad
    00:00 +2°C° 0 mm 1 mps 672 mmHg 67%
    01:00 +2°C° 0 mm 1 mps 672 mmHg 68%
    02:00 +2°C° 0 mm 1 mps 672 mmHg 68%
    03:00 +2°C° 0 mm 1 mps 672 mmHg 69%
    04:00 +1°C° 0 mm 1 mps 672 mmHg 69%
    05:00 +1°C° 0 mm 1 mps 672 mmHg 69%
    06:00 +1°C° 0 mm 1 mps 672 mmHg 69%
    07:00 +1°C° 0 mm 1 mps 672 mmHg 69%
    08:00 +3°C° 0 mm 1 mps 672 mmHg 63%
    09:00 +5°C° 0 mm 1 mps 672 mmHg 58%
    10:00 +7°C° 0 mm 1 mps 673 mmHg 52%
    11:00 +8°C° 0 mm 1 mps 673 mmHg 49%
    12:00 +9°C° 0 mm 1 mps 673 mmHg 46%
    13:00 +10°C° 0 mm 1 mps 672 mmHg 42%
    14:00 +10°C° 0 mm 1 mps 672 mmHg 44%
    15:00 +10°C° 0 mm 1 mps 672 mmHg 45%
    16:00 +9°C° 0 mm 1 mps 672 mmHg 47%
    17:00 +8°C° 0 mm 1 mps 672 mmHg 51%
    18:00 +6°C° 0 mm 1 mps 672 mmHg 56%
    19:00 +5°C° 0 mm 1 mps 672 mmHg 61%
    20:00 +4°C° 0 mm 1 mps 672 mmHg 63%
    21:00 +4°C° 0 mm 1 mps 672 mmHg 66%
    22:00 +3°C° 0 mm 1 mps 671 mmHg 69%
    23:00 +3°C° 0 mm 1 mps 671 mmHg 70%

    Mañana, 20 Febrero, Miércoles

    Tiempo Temperatura Precipitaciones Viento Presión Humedad
    00:00 +2°C° 0 mm 1 mps 671 mmHg 72%
    01:00 +2°C° 0 mm 1 mps 671 mmHg 73%
    02:00 +1°C° 0 mm 1 mps 671 mmHg 73%
    03:00 +1°C° 0 mm 1 mps 671 mmHg 73%
    04:00 +1°C° 0 mm 1 mps 671 mmHg 73%
    05:00 +1°C° 0 mm 1 mps 671 mmHg 72%
    06:00 +1°C° 0 mm 1 mps 671 mmHg 70%
    07:00 +1°C° 0 mm 1 mps 671 mmHg 68%
    08:00 +3°C° 0 mm 1 mps 672 mmHg 61%
    09:00 +5°C° 0 mm 1 mps 672 mmHg 53%
    10:00 +7°C° 0 mm 1 mps 673 mmHg 45%
    11:00 +7°C° 0 mm 1 mps 673 mmHg 44%
    12:00 +8°C° 0 mm 1 mps 673 mmHg 43%
    13:00 +9°C° 0 mm 1 mps 673 mmHg 42%
    14:00 +9°C° 0 mm 1 mps 673 mmHg 45%
    15:00 +8°C° 0 mm 2 mps 673 mmHg 47%
    16:00 +8°C° 0 mm 2 mps 673 mmHg 50%
    17:00 +7°C° 0 mm 1 mps 673 mmHg 56%
    18:00 +6°C° 0 mm 1 mps 673 mmHg 62%
    19:00 +4°C° 0 mm 1 mps 673 mmHg 68%
    20:00 +4°C° 0 mm 1 mps 674 mmHg 72%
    21:00 +2°C° 0 mm 0 mps 674 mmHg 75%
    22:00 +2°C° 0 mm 0 mps 674 mmHg 79%
    23:00 +1°C° 0 mm 0 mps 674 mmHg 81%

    Pasado mañana, 21 Febrero, Jueves

    Tiempo Temperatura Precipitaciones Viento Presión Humedad
    00:00 +1°C° 0 mm 0 mps 674 mmHg 83%
    01:00 +1°C° 0 mm 0 mps 674 mmHg 86%
    02:00 +1°C° 0 mm 0 mps 674 mmHg 87%
    03:00 0°C° 0 mm 0 mps 674 mmHg 88%
    04:00 0°C° 0 mm 0 mps 674 mmHg 90%
    05:00 0°C° 0 mm 0 mps 674 mmHg 90%
    06:00 0°C° 0 mm 0 mps 674 mmHg 91%
    07:00 0°C° 0 mm 0 mps 675 mmHg 91%
    08:00 +2°C° 0 mm 0 mps 675 mmHg 85%
    09:00 +3°C° 0 mm 0 mps 675 mmHg 78%
    10:00 +5°C° 0 mm 0 mps 676 mmHg 71%
    11:00 +7°C° 0 mm 1 mps 676 mmHg 67%
    12:00 +8°C° 0 mm 1 mps 675 mmHg 63%
    13:00 +8°C° 0 mm 1 mps 675 mmHg 58%
    14:00 +8°C° 0 mm 1 mps 675 mmHg 58%
    15:00 +8°C° 0 mm 1 mps 675 mmHg 57%
    16:00 +8°C° 0 mm 1 mps 675 mmHg 57%
    17:00 +7°C° 0 mm 1 mps 675 mmHg 61%
    18:00 +6°C° 0 mm 1 mps 675 mmHg 65%
    19:00 +3°C° 0 mm 0 mps 675 mmHg 69%
    20:00 +3°C° 0 mm 0 mps 675 mmHg 70%
    21:00 +2°C° 0 mm 0 mps 675 mmHg 72%
    22:00 +2°C° 0 mm 0 mps 674 mmHg 73%
    23:00 +2°C° 0 mm 0 mps 674 mmHg 74%

    22 Febrero, Viernes

    Tiempo Temperatura Precipitaciones Viento Presión Humedad
    00:00 +2°C° 0 mm 0 mps 674 mmHg 74%
    01:00 +2°C° 0 mm 0 mps 674 mmHg 75%
    02:00 +2°C° 0.1 mm 0 mps 674 mmHg 77%
    03:00 +3°C° 0.1 mm 1 mps 673 mmHg 78%
    04:00 +3°C° 0.1 mm 1 mps 673 mmHg 79%
    05:00 +3°C° 0.2 mm 1 mps 673 mmHg 79%
    06:00 +3°C° 0.2 mm 1 mps 672 mmHg 79%
    07:00 +3°C° 0.2 mm 1 mps 672 mmHg 79%
    08:00 +3°C° 0.1 mm 2 mps 672 mmHg 73%
    09:00 +4°C° 0.1 mm 2 mps 672 mmHg 68%
    10:00 +5°C° 0.1 mm 2 mps 672 mmHg 62%
    11:00 +4°C° 0.4 mm 3 mps 671 mmHg 63%
    12:00 +4°C° 0.4 mm 3 mps 671 mmHg 65%
    13:00 +4°C° 0.4 mm 4 mps 670 mmHg 66%
    14:00 +4°C° 0.6 mm 3 mps 670 mmHg 68%
    15:00 +3°C° 0.6 mm 3 mps 669 mmHg 70%
    16:00 +3°C° 0.6 mm 3 mps 669 mmHg 71%
    17:00 +3°C° 0.3 mm 2 mps 669 mmHg 76%
    18:00 +3°C° 0.3 mm 2 mps 669 mmHg 80%
    19:00 +2°C° 0.3 mm 2 mps 669 mmHg 84%
    20:00 +2°C° 0.3 mm 2 mps 669 mmHg 85%
    21:00 +2°C° 0.3 mm 2 mps 669 mmHg 87%
    22:00 +1°C° 0.3 mm 3 mps 669 mmHg 88%
    23:00 -1°C° 0.1 mm 3 mps 669 mmHg 83%

    23 Febrero, Sábado

    Tiempo Temperatura Precipitaciones Viento Presión Humedad
    00:00 -3°C° 0.1 mm 4 mps 670 mmHg 79%
    01:00 -5°C° 0.1 mm 5 mps 670 mmHg 74%
    02:00 -6°C° 0.1 mm 5 mps 670 mmHg 74%
    03:00 -7°C° 0.1 mm 5 mps 670 mmHg 73%
    04:00 -8°C° 0.1 mm 5 mps 670 mmHg 73%
    05:00 -10°C° 0.3 mm 5 mps 671 mmHg 73%
    06:00 -10°C° 0.3 mm 5 mps 671 mmHg 74%
    07:00 -10°C° 0.3 mm 5 mps 672 mmHg 75%
    08:00 -10°C° 0.2 mm 6 mps 672 mmHg 73%
    09:00 -9°C° 0.2 mm 6 mps 673 mmHg 70%
    10:00 -9°C° 0.2 mm 6 mps 673 mmHg 68%
    11:00 -8°C° 0.1 mm 6 mps 674 mmHg 66%
    12:00 -8°C° 0.1 mm 6 mps 674 mmHg 63%
    13:00 -8°C° 0.1 mm 6 mps 674 mmHg 61%
    14:00 -8°C° 0.1 mm 6 mps 674 mmHg 62%
    15:00 -9°C° 0.1 mm 6 mps 674 mmHg 63%
    16:00 -9°C° 0.1 mm 6 mps 674 mmHg 64%
    17:00 -10°C° 0 mm 6 mps 674 mmHg 65%
    18:00 -10°C° 0 mm 5 mps 674 mmHg 67%
    19:00 -11°C° 0 mm 5 mps 674 mmHg 69%
    20:00 -11°C° 0 mm 5 mps 674 mmHg 67%
    21:00 -11°C° 0 mm 5 mps 674 mmHg 66%
    22:00 -11°C° 0 mm 4 mps 674 mmHg 64%
    23:00 -11°C° 0 mm 4 mps 674 mmHg 63%

    24 Febrero, Domingo

    Tiempo Temperatura Precipitaciones Viento Presión Humedad
    00:00 -11°C° 0 mm 4 mps 674 mmHg 63%
    01:00 -11°C° 0 mm 4 mps 674 mmHg 63%
    02:00 -11°C° 0 mm 4 mps 674 mmHg 64%
    03:00 -12°C° 0 mm 4 mps 673 mmHg 64%
    04:00 -12°C° 0 mm 3 mps 673 mmHg 65%
    05:00 -12°C° 0 mm 4 mps 673 mmHg 66%
    06:00 -12°C° 0 mm 4 mps 673 mmHg 66%
    07:00 -12°C° 0 mm 4 mps 673 mmHg 66%
    08:00 -11°C° 0 mm 4 mps 673 mmHg 60%
    09:00 -11°C° 0 mm 5 mps 674 mmHg 54%
    10:00 -8°C° 0 mm 5 mps 674 mmHg 48%
    11:00 -9°C° 0 mm 6 mps 674 mmHg 46%
    12:00 -8°C° 0 mm 6 mps 673 mmHg 44%
    13:00 -6°C° 0 mm 6 mps 673 mmHg 42%
    14:00 -8°C° 0 mm 6 mps 673 mmHg 43%
    15:00 -8°C° 0 mm 6 mps 673 mmHg 44%
    16:00 -8°C° 0 mm 6 mps 673 mmHg 45%
    17:00 -8°C° 0 mm 5 mps 673 mmHg 49%
    18:00 -9°C° 0 mm 4 mps 673 mmHg 54%
    19:00 -10°C° 0 mm 4 mps 673 mmHg 59%
    20:00 -10°C° 0 mm 3 mps 674 mmHg 58%
    21:00 -10°C° 0 mm 3 mps 674 mmHg 58%
    22:00 -10°C° 0 mm 3 mps 674 mmHg 57%
    23:00 -10°C° 0 mm 3 mps 673 mmHg 58%
    Mostrar más